{"data":{"norad_id":53842,"intl_designator":"2022-114AA","name":"STARLINK-4754","alt_names":[],"object_type":"PAYLOAD","status":"ACTIVE","operator":null,"country":"US","launch_date":"2022-09-19","launch_site_code":"AFETR","launch_vehicle":null,"mission":null,"orbit_class":"UNKNOWN","rcs_meters":null,"size_class":null,"mass_kg":null,"dimensions":null,"purposes":["comms"],"wikipedia_slug":null,"has_3d_model":false,"image_url":null,"decayed_at":null,"tle_current":{"epoch":"2026-05-24T21:02:09.555072Z","epoch_age_seconds":88976,"freshness":"FRESH","line1":"1 53842U 22114AA  26144.87649948 -.00000023  00000+0  16625-4 0  9993","line2":"2 53842  53.2138 312.0740 0001568  93.2273 266.8899 15.08844958204476","mean_motion":15.08844958,"eccentricity":0.0001568,"inclination_deg":53.2138,"raan_deg":312.074,"arg_perigee_deg":93.2273,"mean_anomaly_deg":266.8899,"bstar":1.6625e-5,"rev_number":20447,"period_min":95.437241074043,"perigee_km":538.64351311433,"apogee_km":540.81295565183,"semimajor_km":6917.8652343831,"source":"CELESTRAK","updated_at":"2026-05-25T13:38:17.574302Z"}}}